Time,TemperatureF,DewpointF,PressureIn,WindDirection,WindDirectionDegrees,WindSpeedMPH,WindSpeedGustMPH,Humidity,HourlyPrecipIn,Conditions,Clouds,dailyrainin,SolarRadiationWatts/m^2,SoftwareType,DateUTC
2013-01-05 00:00:00,25.0,20.8,30.19,WSW,252,5.0,7.0,84,0.00,CLR,,0.00,0.0,WeatherDisplay:10.37,2013-01-05 05:00:00,
2013-01-05 00:01:00,25.0,20.8,30.19,WSW,248,6.9,6.9,84,0.00,CLR,,0.00,0.0,WeatherDisplay:10.37,2013-01-05 05:01:00,
2013-01-05 00:06:00,25.0,20.8,30.18,WSW,243,3.5,3.5,84,0.00,CLR,,0.00,0.0,WeatherDisplay:10.37,2013-01-05 05:06:00,
2013-01-05 00:11:00,24.9,21.0,30.19,SW,234,4.0,4.0,85,0.00,CLR,,0.00,0.0,WeatherDisplay:10.37,2013-01-05 05:11:00,
2013-01-05 00:16:00,24.8,20.9,30.18,SW,235,5.0,5.0,85,0.00,CLR,,0.00,0.0,WeatherDisplay:10.37,2013-01-05 05:16:00,
2013-01-05 00:21:00,24.7,20.8,30.19,WSW,241,4.6,4.6,85,0.00,CLR,,0.00,0.0,WeatherDisplay:10.37,2013-01-05 05:21:00,
2013-01-05 00:26:00,24.6,20.7,30.19,WSW,240,5.0,5.0,85,0.00,CLR,,0.00,0.0,WeatherDisplay:10.37,2013-01-05 05:26:00,
2013-01-05 00:31:00,24.5,20.6,30.19,SW,225,4.0,4.0,85,0.00,CLR,,0.00,0.0,WeatherDisplay:10.37,2013-01-05 05:31:00,
2013-01-05 00:36:00,24.4,20.5,30.19,SW,236,4.6,4.6,85,0.00,CLR,,0.00,0.0,WeatherDisplay:10.37,2013-01-05 05:36:00,
2013-01-05 00:41:00,24.3,20.7,30.19,WSW,238,4.6,4.6,86,0.00,CLR,,0.00,0.0,WeatherDisplay:10.37,2013-01-05 05:41:00,
2013-01-05 00:46:00,24.2,20.6,30.19,SW,229,5.8,5.8,86,0.00,CLR,,0.00,0.0,WeatherDisplay:10.37,2013-01-05 05:46:00,
2013-01-05 00:51:00,24.0,20.4,30.19,SW,225,5.8,5.8,86,0.00,CLR,,0.00,0.0,WeatherDisplay:10.37,2013-01-05 05:51:00,
2013-01-05 00:56:00,24.0,20.4,30.20,SW,225,4.6,4.6,86,0.00,CLR,,0.00,0.0,WeatherDisplay:10.37,2013-01-05 05:56:00,
2013-01-05 01:01:00,23.9,20.6,30.20,WSW,243,4.6,4.6,87,0.00,CLR,,0.00,0.0,WeatherDisplay:10.37,2013-01-05 06:01:00,
2013-01-05 01:06:00,23.9,20.3,30.20,SW,227,4.6,4.6,86,0.00,CLR,,0.00,0.0,WeatherDisplay:10.37,2013-01-05 06:06:00,
2013-01-05 01:11:00,23.9,20.6,30.20,WSW,238,6.0,6.0,87,0.00,CLR,,0.00,0.0,WeatherDisplay:10.37,2013-01-05 06:11:00,
2013-01-05 01:16:00,23.8,20.5,30.20,WSW,239,6.9,6.9,87,0.00,CLR,,0.00,0.0,WeatherDisplay:10.37,2013-01-05 06:16:00,
2013-01-05 01:21:00,23.9,20.6,30.20,SW,232,5.8,5.8,87,0.00,CLR,,0.00,0.0,WeatherDisplay:10.37,2013-01-05 06:21:00,
2013-01-05 01:26:00,23.9,20.6,30.20,WSW,245,5.8,5.8,87,0.00,CLR,,0.00,0.0,WeatherDisplay:10.37,2013-01-05 06:26:00,
2013-01-05 01:31:00,23.8,20.5,30.20,SW,226,8.1,8.1,87,0.00,CLR,,0.00,0.0,WeatherDisplay:10.37,2013-01-05 06:31:00,
2013-01-05 01:36:00,23.8,20.5,30.20,SW,226,4.6,4.6,87,0.00,CLR,,0.00,0.0,WeatherDisplay:10.37,2013-01-05 06:36:00,
2013-01-05 01:41:00,23.7,20.4,30.20,SW,235,6.9,6.9,87,0.00,CLR,,0.00,0.0,WeatherDisplay:10.37,2013-01-05 06:41:00,
2013-01-05 01:46:00,23.6,20.3,30.20,SW,233,5.8,5.8,87,0.00,CLR,,0.00,0.0,WeatherDisplay:10.37,2013-01-05 06:46:00,
2013-01-05 01:51:00,23.6,20.3,30.21,SW,234,4.6,4.6,87,0.00,CLR,,0.00,0.0,WeatherDisplay:10.37,2013-01-05 06:51:00,
2013-01-05 01:56:00,23.5,20.2,30.21,SW,225,4.6,4.6,87,0.00,CLR,,0.00,0.0,WeatherDisplay:10.37,2013-01-05 06:56:00,
2013-01-05 02:01:00,23.5,20.5,30.21,SW,217,6.9,6.9,88,0.00,CLR,,0.00,0.0,WeatherDisplay:10.37,2013-01-05 07:01:00,
2013-01-05 02:06:00,23.5,20.5,30.21,WSW,249,5.8,5.8,88,0.00,CLR,,0.00,0.0,WeatherDisplay:10.37,2013-01-05 07:06:00,
2013-01-05 02:11:00,23.6,20.6,30.22,WSW,237,7.0,7.0,88,0.00,CLR,,0.00,0.0,WeatherDisplay:10.37,2013-01-05 07:11:00,
2013-01-05 02:16:00,23.7,20.7,30.22,SW,236,6.9,6.9,88,0.00,CLR,,0.00,0.0,WeatherDisplay:10.37,2013-01-05 07:16:00,
2013-01-05 02:21:00,23.6,20.6,30.22,WSW,246,8.1,8.1,88,0.00,CLR,,0.00,0.0,WeatherDisplay:10.37,2013-01-05 07:21:00,
2013-01-05 02:26:00,23.6,20.6,30.22,SW,236,5.8,5.8,88,0.00,CLR,,0.00,0.0,WeatherDisplay:10.37,2013-01-05 07:26:00,
2013-01-05 02:31:00,23.5,20.5,30.22,WSW,242,4.0,4.0,88,0.00,CLR,,0.00,0.0,WeatherDisplay:10.37,2013-01-05 07:31:00,
2013-01-05 02:36:00,23.5,20.5,30.22,WSW,242,5.8,5.8,88,0.00,CLR,,0.00,0.0,WeatherDisplay:10.37,2013-01-05 07:36:00,
2013-01-05 02:41:00,23.4,20.4,30.22,WSW,244,3.5,3.5,88,0.00,CLR,,0.00,0.0,WeatherDisplay:10.37,2013-01-05 07:41:00,
2013-01-05 02:46:00,23.3,20.3,30.22,WSW,248,5.8,5.8,88,0.00,CLR,,0.00,0.0,WeatherDisplay:10.37,2013-01-05 07:46:00,
2013-01-05 02:51:00,23.2,20.4,30.23,SW,232,3.5,3.5,89,0.00,CLR,,0.00,0.0,WeatherDisplay:10.37,2013-01-05 07:51:00,
2013-01-05 02:56:00,23.1,20.3,30.23,SW,228,5.8,5.8,89,0.00,CLR,,0.00,0.0,WeatherDisplay:10.37,2013-01-05 07:56:00,
2013-01-05 03:01:00,23.0,20.2,30.23,SW,236,5.8,5.8,89,0.00,CLR,,0.00,0.0,WeatherDisplay:10.37,2013-01-05 08:01:00,
2013-01-05 03:06:00,23.0,20.2,30.24,SW,226,4.6,4.6,89,0.00,CLR,,0.00,0.0,WeatherDisplay:10.37,2013-01-05 08:06:00,
2013-01-05 03:11:00,22.9,20.1,30.24,WSW,250,8.1,8.1,89,0.00,CLR,,0.00,0.0,WeatherDisplay:10.37,2013-01-05 08:11:00,
2013-01-05 03:16:00,22.9,20.1,30.25,SW,236,6.9,6.9,89,0.00,CLR,,0.00,0.0,WeatherDisplay:10.37,2013-01-05 08:16:00,
2013-01-05 03:21:00,23.0,20.5,30.25,WSW,242,6.9,6.9,90,0.00,CLR,,0.00,0.0,WeatherDisplay:10.37,2013-01-05 08:21:00,
2013-01-05 03:26:00,23.0,20.5,30.25,SW,228,5.8,5.8,90,0.00,CLR,,0.00,0.0,WeatherDisplay:10.37,2013-01-05 08:26:00,
2013-01-05 03:31:00,23.0,20.5,30.25,WSW,242,8.1,8.1,90,0.00,CLR,,0.00,0.0,WeatherDisplay:10.37,2013-01-05 08:31:00,
2013-01-05 03:36:00,23.0,20.2,30.25,WSW,248,6.9,6.9,89,0.00,CLR,,0.00,0.0,WeatherDisplay:10.37,2013-01-05 08:36:00,
2013-01-05 03:41:00,23.0,20.5,30.25,WSW,242,6.9,6.9,90,0.00,CLR,,0.00,0.0,WeatherDisplay:10.37,2013-01-05 08:41:00,
2013-01-05 03:46:00,22.9,20.4,30.25,SW,219,6.0,6.0,90,0.00,CLR,,0.00,0.0,WeatherDisplay:10.37,2013-01-05 08:46:00,
2013-01-05 03:51:00,22.9,20.4,30.25,WSW,240,3.5,3.5,90,0.00,CLR,,0.00,0.0,WeatherDisplay:10.37,2013-01-05 08:51:00,
2013-01-05 03:57:00,22.8,20.3,30.25,SSW,203,4.6,4.6,90,0.00,CLR,,0.00,0.0,WeatherDisplay:10.37,2013-01-05 08:57:00,
2013-01-05 04:02:00,22.8,20.3,30.25,SW,232,5.0,5.0,90,0.00,CLR,,0.00,0.0,WeatherDisplay:10.37,2013-01-05 09:02:00,
2013-01-05 04:07:00,22.7,20.2,30.25,SW,222,5.0,5.0,90,0.00,CLR,,0.00,0.0,WeatherDisplay:10.37,2013-01-05 09:07:00,
2013-01-05 04:12:00,22.7,20.2,30.24,SW,228,4.0,4.0,90,0.00,CLR,,0.00,0.0,WeatherDisplay:10.37,2013-01-05 09:12:00,
2013-01-05 04:17:00,22.6,20.1,30.24,SW,231,3.5,3.5,90,0.00,CLR,,0.00,0.0,WeatherDisplay:10.37,2013-01-05 09:17:00,
2013-01-05 04:22:00,22.4,19.9,30.24,SSW,209,5.8,5.8,90,0.00,CLR,,0.00,0.0,WeatherDisplay:10.37,2013-01-05 09:22:00,
2013-01-05 04:27:00,22.3,19.8,30.24,SSW,213,5.0,5.0,90,0.00,CLR,,0.00,0.0,WeatherDisplay:10.37,2013-01-05 09:27:00,
2013-01-05 04:32:00,22.1,19.6,30.24,SW,216,4.6,4.6,90,0.00,CLR,,0.00,0.0,WeatherDisplay:10.37,2013-01-05 09:32:00,
2013-01-05 04:37:00,22.1,19.9,30.24,SSW,200,7.0,7.0,91,0.00,CLR,,0.00,0.0,WeatherDisplay:10.37,2013-01-05 09:37:00,
2013-01-05 04:42:00,22.1,19.9,30.24,SW,214,4.0,4.0,91,0.00,CLR,,0.00,0.0,WeatherDisplay:10.37,2013-01-05 09:42:00,
2013-01-05 04:47:00,22.1,19.9,30.24,SW,229,7.0,7.0,91,0.00,CLR,,0.00,0.0,WeatherDisplay:10.37,2013-01-05 09:47:00,
2013-01-05 04:52:00,22.2,20.0,30.25,SW,233,5.8,5.8,91,0.00,CLR,,0.00,0.0,WeatherDisplay:10.37,2013-01-05 09:52:00,
2013-01-05 04:57:00,22.2,20.0,30.25,SW,215,3.5,3.5,91,0.00,CLR,,0.00,0.0,WeatherDisplay:10.37,2013-01-05 09:57:00,
2013-01-05 05:02:00,22.1,19.9,30.25,SW,225,4.6,4.6,91,0.00,CLR,,0.00,0.0,WeatherDisplay:10.37,2013-01-05 10:02:00,
2013-01-05 05:07:00,22.0,19.8,30.25,SSW,205,4.6,4.6,91,0.00,CLR,,0.00,0.0,WeatherDisplay:10.37,2013-01-05 10:07:00,
2013-01-05 05:12:00,22.0,19.8,30.25,SSW,213,5.0,5.0,91,0.00,CLR,,0.00,0.0,WeatherDisplay:10.37,2013-01-05 10:12:00,
2013-01-05 05:17:00,22.0,20.0,30.25,SW,215,5.8,5.8,92,0.00,CLR,,0.00,0.0,WeatherDisplay:10.37,2013-01-05 10:17:00,
2013-01-05 05:22:00,22.0,20.0,30.25,SSW,212,3.5,3.5,92,0.00,CLR,,0.00,0.0,WeatherDisplay:10.37,2013-01-05 10:22:00,
2013-01-05 05:27:00,22.0,20.0,30.25,SSW,213,2.3,2.3,92,0.00,CLR,,0.00,0.0,WeatherDisplay:10.37,2013-01-05 10:27:00,
2013-01-05 05:32:00,21.8,19.6,30.25,SSW,213,2.3,2.3,91,0.00,CLR,,0.00,0.0,WeatherDisplay:10.37,2013-01-05 10:32:00,
2013-01-05 05:37:00,21.6,19.4,30.25,SSW,212,3.5,3.5,91,0.00,CLR,,0.00,0.0,WeatherDisplay:10.37,2013-01-05 10:37:00,
2013-01-05 05:42:00,21.3,19.1,30.25,SW,219,6.9,6.9,91,0.00,CLR,,0.00,0.0,WeatherDisplay:10.37,2013-01-05 10:42:00,
2013-01-05 05:47:00,21.1,18.9,30.25,SW,229,4.6,4.6,91,0.00,CLR,,0.00,0.0,WeatherDisplay:10.37,2013-01-05 10:47:00,
2013-01-05 05:52:00,21.2,19.2,30.26,SW,218,4.6,4.6,92,0.00,CLR,,0.00,0.0,WeatherDisplay:10.37,2013-01-05 10:52:00,
2013-01-05 05:57:00,21.4,19.7,30.25,SW,225,3.5,3.5,93,0.00,CLR,,0.00,0.0,WeatherDisplay:10.37,2013-01-05 10:57:00,
2013-01-05 06:02:00,21.4,19.7,30.25,SW,219,1.1,1.1,93,0.00,CLR,,0.00,0.0,WeatherDisplay:10.37,2013-01-05 11:02:00,
2013-01-05 06:07:00,21.2,19.2,30.25,SW,219,2.0,2.0,92,0.00,CLR,,0.00,0.0,WeatherDisplay:10.37,2013-01-05 11:07:00,
2013-01-05 06:12:00,20.9,18.9,30.26,SW,218,4.0,4.0,92,0.00,CLR,,0.00,0.0,WeatherDisplay:10.37,2013-01-05 11:12:00,
2013-01-05 06:17:00,20.7,18.7,30.26,SSW,202,4.0,4.0,92,0.00,CLR,,0.00,0.0,WeatherDisplay:10.37,2013-01-05 11:17:00,
2013-01-05 06:22:00,20.7,18.7,30.26,SW,217,3.5,3.5,92,0.00,CLR,,0.00,0.0,WeatherDisplay:10.37,2013-01-05 11:22:00,
2013-01-05 06:27:00,20.6,18.6,30.26,SW,214,4.6,4.6,92,0.00,CLR,,0.00,0.0,WeatherDisplay:10.37,2013-01-05 11:27:00,
2013-01-05 06:32:00,20.4,18.4,30.26,SSW,211,4.0,4.0,92,0.00,CLR,,0.00,0.0,WeatherDisplay:10.37,2013-01-05 11:32:00,
2013-01-05 06:37:00,20.3,18.3,30.26,SSW,207,3.5,3.5,92,0.00,CLR,,0.00,0.0,WeatherDisplay:10.37,2013-01-05 11:37:00,
2013-01-05 06:42:00,20.4,18.7,30.26,SSW,210,4.0,4.0,93,0.00,CLR,,0.00,0.0,WeatherDisplay:10.37,2013-01-05 11:42:00,
2013-01-05 06:47:00,20.4,18.7,30.25,SSW,211,3.5,3.5,93,0.00,CLR,,0.00,0.0,WeatherDisplay:10.37,2013-01-05 11:47:00,
2013-01-05 06:52:00,20.4,18.7,30.25,SSW,205,2.3,2.3,93,0.00,CLR,,0.00,0.0,WeatherDisplay:10.37,2013-01-05 11:52:00,
2013-01-05 06:57:00,20.1,18.1,30.25,SSW,205,3.5,3.5,92,0.00,CLR,,0.00,0.0,WeatherDisplay:10.37,2013-01-05 11:57:00,
2013-01-05 07:02:00,19.4,16.9,30.24,SSW,205,1.1,1.1,90,0.00,CLR,,0.00,0.0,WeatherDisplay:10.37,2013-01-05 12:02:00,
2013-01-05 07:07:00,19.0,16.8,30.25,SSW,205,2.3,2.3,91,0.00,CLR,,0.00,0.0,WeatherDisplay:10.37,2013-01-05 12:07:00,
2013-01-05 07:12:00,18.7,16.5,30.25,SSW,205,3.5,3.5,91,0.00,CLR,,0.00,0.0,WeatherDisplay:10.37,2013-01-05 12:12:00,
2013-01-05 07:17:00,18.5,16.3,30.25,SSW,205,2.3,2.3,91,0.00,CLR,,0.00,0.0,WeatherDisplay:10.37,2013-01-05 12:17:00,
2013-01-05 07:22:00,18.2,16.0,30.25,SSW,204,2.3,2.3,91,0.00,CLR,,0.00,0.0,WeatherDisplay:10.37,2013-01-05 12:22:00,
2013-01-05 07:27:00,17.8,15.4,30.26,SSW,202,4.6,4.6,90,0.00,CLR,,0.00,0.0,WeatherDisplay:10.37,2013-01-05 12:27:00,
2013-01-05 07:32:00,17.8,15.9,30.26,SSW,200,6.0,6.0,92,0.00,CLR,,0.00,0.0,WeatherDisplay:10.37,2013-01-05 12:32:00,
2013-01-05 07:37:00,18.8,17.1,30.26,SSW,197,4.6,4.6,93,0.00,CLR,,0.00,0.0,WeatherDisplay:10.37,2013-01-05 12:37:00,
2013-01-05 07:42:00,19.4,18.0,30.26,South,191,4.0,4.0,94,0.00,CLR,,0.00,0.0,WeatherDisplay:10.37,2013-01-05 12:42:00,
2013-01-05 07:47:00,19.7,18.3,30.26,SSW,202,4.0,4.0,94,0.00,CLR,,0.00,0.0,WeatherDisplay:10.37,2013-01-05 12:47:00,
2013-01-05 07:52:00,19.9,18.2,30.26,SW,219,4.6,4.6,93,0.00,CLR,,0.00,0.0,WeatherDisplay:10.37,2013-01-05 12:52:00,
2013-01-05 07:57:00,20.0,18.3,30.26,SSW,210,6.0,6.0,93,0.00,CLR,,0.00,0.0,WeatherDisplay:10.37,2013-01-05 12:57:00,
2013-01-05 08:02:00,20.3,18.6,30.26,SSW,207,4.0,4.2,93,0.00,CLR,,0.00,0.0,WeatherDisplay:10.37,2013-01-05 13:02:00,
2013-01-05 08:07:00,20.5,18.8,30.26,SSW,211,4.6,4.6,93,0.00,CLR,,0.00,5.0,WeatherDisplay:10.37,2013-01-05 13:07:00,
2013-01-05 08:12:00,20.6,18.9,30.27,South,178,5.8,5.8,93,0.00,CLR,,0.00,7.0,WeatherDisplay:10.37,2013-01-05 13:12:00,
2013-01-05 08:17:00,20.8,19.1,30.27,SSW,196,3.5,3.5,93,0.00,CLR,,0.00,11.0,WeatherDisplay:10.37,2013-01-05 13:17:00,
2013-01-05 08:22:00,20.9,19.2,30.27,SSW,201,5.8,5.8,93,0.00,CLR,,0.00,14.0,WeatherDisplay:10.37,2013-01-05 13:22:00,
2013-01-05 08:27:00,21.0,19.3,30.27,SSW,204,5.8,5.8,93,0.00,CLR,,0.00,18.0,WeatherDisplay:10.37,2013-01-05 13:27:00,
2013-01-05 08:32:00,21.2,19.5,30.27,SSW,211,5.0,5.0,93,0.00,CLR,,0.00,19.0,WeatherDisplay:10.37,2013-01-05 13:32:00,
2013-01-05 08:37:00,21.3,19.6,30.27,South,190,2.3,2.7,93,0.00,CLR,,0.00,19.0,WeatherDisplay:10.37,2013-01-05 13:37:00,
2013-01-05 08:42:00,21.3,19.6,30.26,SSW,192,4.6,4.6,93,0.00,CLR,,0.00,23.0,WeatherDisplay:10.37,2013-01-05 13:42:00,
2013-01-05 08:47:00,21.0,18.8,30.26,SSW,192,2.3,2.3,91,0.00,CLR,,0.00,28.0,WeatherDisplay:10.37,2013-01-05 13:47:00,
2013-01-05 08:52:00,20.7,18.5,30.26,South,188,3.5,3.5,91,0.00,CLR,,0.00,33.0,WeatherDisplay:10.37,2013-01-05 13:52:00,
2013-01-05 08:57:00,20.8,18.8,30.26,South,188,3.5,3.5,92,0.00,CLR,,0.00,39.0,WeatherDisplay:10.37,2013-01-05 13:57:00,
2013-01-05 09:02:00,21.2,19.5,30.26,South,184,3.5,3.5,93,0.00,CLR,,0.00,49.0,WeatherDisplay:10.37,2013-01-05 14:02:00,
2013-01-05 09:07:00,21.6,19.9,30.27,South,187,4.0,4.0,93,0.00,CLR,,0.00,44.0,WeatherDisplay:10.37,2013-01-05 14:07:00,
2013-01-05 09:12:00,21.8,20.1,30.27,South,182,3.5,3.5,93,0.00,CLR,,0.00,62.0,WeatherDisplay:10.37,2013-01-05 14:12:00,
2013-01-05 09:17:00,22.2,20.5,30.27,SSW,205,5.0,5.0,93,0.00,CLR,,0.00,67.0,WeatherDisplay:10.37,2013-01-05 14:17:00,
2013-01-05 09:22:00,22.5,20.8,30.27,SSW,201,6.0,6.0,93,0.00,CLR,,0.00,65.0,WeatherDisplay:10.37,2013-01-05 14:22:00,
2013-01-05 09:27:00,22.9,21.2,30.28,South,184,5.8,5.8,93,0.00,CLR,,0.00,76.0,WeatherDisplay:10.37,2013-01-05 14:27:00,
2013-01-05 09:32:00,23.2,21.5,30.28,SSW,198,3.5,3.5,93,0.00,CLR,,0.00,79.0,WeatherDisplay:10.37,2013-01-05 14:32:00,
2013-01-05 09:37:00,23.4,21.4,30.28,South,178,4.6,4.6,92,0.00,CLR,,0.00,91.0,WeatherDisplay:10.37,2013-01-05 14:37:00,
2013-01-05 09:42:00,23.7,21.7,30.28,SSW,199,4.6,4.6,92,0.00,CLR,,0.00,90.0,WeatherDisplay:10.37,2013-01-05 14:42:00,
2013-01-05 09:47:00,24.1,22.1,30.27,SSW,196,4.6,4.6,92,0.00,CLR,,0.00,125.0,WeatherDisplay:10.37,2013-01-05 14:47:00,
2013-01-05 09:52:00,24.5,22.5,30.27,South,189,3.5,3.5,92,0.00,CLR,,0.00,155.0,WeatherDisplay:10.37,2013-01-05 14:52:00,
2013-01-05 09:57:00,25.1,23.1,30.28,SSW,206,3.5,3.5,92,0.00,CLR,,0.00,135.0,WeatherDisplay:10.37,2013-01-05 14:57:00,
2013-01-05 10:02:00,25.4,23.1,30.28,SW,216,7.0,7.0,91,0.00,OVC,,0.00,139.0,WeatherDisplay:10.37,2013-01-05 15:02:00,
2013-01-05 10:07:00,25.6,23.1,30.28,SW,225,10.4,10.4,90,0.00,OVC,,0.00,174.0,WeatherDisplay:10.37,2013-01-05 15:07:00,
2013-01-05 10:12:00,25.7,22.9,30.29,SW,228,9.2,9.2,89,0.00,OVC,,0.00,206.0,WeatherDisplay:10.37,2013-01-05 15:12:00,
2013-01-05 10:17:00,26.1,23.0,30.29,South,179,6.9,6.9,88,0.00,OVC,,0.00,209.0,WeatherDisplay:10.37,2013-01-05 15:17:00,
2013-01-05 10:22:00,26.5,23.4,30.28,SSW,194,6.9,6.9,88,0.00,OVC,,0.00,236.0,WeatherDisplay:10.37,2013-01-05 15:22:00,
2013-01-05 10:27:00,26.9,23.5,30.29,SSW,213,6.9,6.9,87,0.00,OVC,,0.00,214.0,WeatherDisplay:10.37,2013-01-05 15:27:00,
2013-01-05 10:32:00,27.1,23.7,30.28,SW,216,4.6,4.6,87,0.00,OVC,,0.00,209.0,WeatherDisplay:10.37,2013-01-05 15:32:00,
2013-01-05 10:37:00,27.2,23.8,30.29,South,187,6.9,6.9,87,0.00,OVC,,0.00,156.0,WeatherDisplay:10.37,2013-01-05 15:37:00,
2013-01-05 10:42:00,27.4,23.8,30.28,SW,217,8.1,8.1,86,0.00,OVC,,0.00,218.0,WeatherDisplay:10.37,2013-01-05 15:42:00,
2013-01-05 10:47:00,27.7,24.1,30.28,SW,215,5.8,5.8,86,0.00,OVC,,0.00,227.0,WeatherDisplay:10.37,2013-01-05 15:47:00,
2013-01-05 10:52:00,28.2,24.6,30.28,South,188,6.0,6.0,86,0.00,OVC,,0.00,248.0,WeatherDisplay:10.37,2013-01-05 15:52:00,
2013-01-05 10:57:00,28.4,24.5,30.28,SSW,202,8.1,8.1,85,0.00,OVC,,0.00,292.0,WeatherDisplay:10.37,2013-01-05 15:57:00,
2013-01-05 11:02:00,28.4,24.2,30.28,SSW,196,6.9,6.9,84,0.00,OVC,,0.00,255.0,WeatherDisplay:10.37,2013-01-05 16:02:00,
2013-01-05 11:07:00,28.4,24.2,30.27,SW,236,6.9,6.9,84,0.00,OVC,,0.00,288.0,WeatherDisplay:10.37,2013-01-05 16:07:00,
2013-01-05 11:12:00,28.6,24.7,30.27,SSW,211,4.6,4.6,85,0.00,OVC,,0.00,301.0,WeatherDisplay:10.37,2013-01-05 16:12:00,
2013-01-05 11:17:00,28.9,24.7,30.27,SSW,192,5.8,5.8,84,0.00,OVC,,0.00,316.0,WeatherDisplay:10.37,2013-01-05 16:17:00,
2013-01-05 11:22:00,29.5,25.3,30.26,South,182,11.0,11.0,84,0.00,OVC,,0.00,330.0,WeatherDisplay:10.37,2013-01-05 16:22:00,
2013-01-05 11:27:00,29.7,25.2,30.26,SW,217,7.0,7.0,83,0.00,OVC,,0.00,216.0,WeatherDisplay:10.37,2013-01-05 16:27:00,
2013-01-05 11:32:00,29.4,24.9,30.26,SSW,200,9.2,9.2,83,0.00,OVC,,0.00,221.0,WeatherDisplay:10.37,2013-01-05 16:32:00,
2013-01-05 11:37:00,29.2,25.0,30.26,WSW,250,7.0,7.0,84,0.00,OVC,,0.00,221.0,WeatherDisplay:10.37,2013-01-05 16:37:00,
2013-01-05 11:42:00,29.5,25.5,30.25,SW,215,6.9,6.9,85,0.00,OVC,,0.00,264.0,WeatherDisplay:10.37,2013-01-05 16:42:00,
2013-01-05 11:47:00,29.9,25.7,30.24,SSE,150,3.5,3.5,84,0.00,OVC,,0.00,227.0,WeatherDisplay:10.37,2013-01-05 16:47:00,
2013-01-05 11:52:00,30.3,25.8,30.23,SW,234,5.8,5.8,83,0.00,OVC,,0.00,262.0,WeatherDisplay:10.37,2013-01-05 16:52:00,
2013-01-05 11:57:00,30.5,26.0,30.23,SSW,208,5.8,5.8,83,0.00,OVC,,0.00,251.0,WeatherDisplay:10.37,2013-01-05 16:57:00,
2013-01-05 12:02:00,30.6,26.1,30.23,South,190,5.0,5.0,83,0.00,OVC,,0.00,237.0,WeatherDisplay:10.37,2013-01-05 17:02:00,
2013-01-05 12:07:00,30.8,26.2,30.23,SSW,202,8.1,8.1,83,0.00,OVC,,0.00,241.0,WeatherDisplay:10.37,2013-01-05 17:07:00,
2013-01-05 12:12:00,31.0,26.7,30.22,South,176,6.9,6.9,84,0.00,OVC,,0.00,244.0,WeatherDisplay:10.37,2013-01-05 17:12:00,
2013-01-05 12:17:00,31.4,27.1,30.22,SSE,163,8.1,8.1,84,0.00,OVC,,0.00,302.0,WeatherDisplay:10.37,2013-01-05 17:17:00,
2013-01-05 12:22:00,32.0,27.4,30.21,SSW,208,6.9,6.9,83,0.00,OVC,,0.00,434.0,WeatherDisplay:10.37,2013-01-05 17:22:00,
2013-01-05 12:27:00,32.7,27.8,30.21,SSE,162,10.4,10.4,82,0.00,OVC,,0.00,417.0,WeatherDisplay:10.37,2013-01-05 17:27:00,
2013-01-05 12:32:00,32.9,27.7,30.20,South,176,12.7,12.7,81,0.00,OVC,,0.00,404.0,WeatherDisplay:10.37,2013-01-05 17:32:00,
2013-01-05 12:37:00,33.0,27.8,30.19,South,182,6.9,6.9,81,0.00,OVC,,0.00,404.0,WeatherDisplay:10.37,2013-01-05 17:37:00,
2013-01-05 12:42:00,33.3,28.1,30.19,SSW,197,5.0,5.0,81,0.00,OVC,,0.00,413.0,WeatherDisplay:10.37,2013-01-05 17:42:00,
2013-01-05 12:47:00,33.5,28.0,30.19,South,188,6.9,6.9,80,0.00,OVC,,0.00,415.0,WeatherDisplay:10.37,2013-01-05 17:47:00,
2013-01-05 12:52:00,33.9,28.1,30.18,South,171,6.0,6.0,79,0.00,OVC,,0.00,417.0,WeatherDisplay:10.37,2013-01-05 17:52:00,
2013-01-05 12:57:00,34.0,27.9,30.17,SSE,163,9.2,9.2,78,0.00,OVC,,0.00,417.0,WeatherDisplay:10.37,2013-01-05 17:57:00,
2013-01-05 13:03:00,34.0,27.9,30.17,South,190,6.9,6.9,78,0.00,OVC,,0.00,420.0,WeatherDisplay:10.37,2013-01-05 18:03:00,
2013-01-05 13:08:00,34.2,28.1,30.16,South,174,9.2,9.2,78,0.00,OVC,,0.00,420.0,WeatherDisplay:10.37,2013-01-05 18:08:00,
2013-01-05 13:13:00,34.3,27.8,30.16,South,173,9.2,9.2,77,0.00,OVC,,0.00,415.0,WeatherDisplay:10.37,2013-01-05 18:13:00,
2013-01-05 13:18:00,34.4,27.9,30.15,SSW,196,11.5,11.5,77,0.00,OVC,,0.00,418.0,WeatherDisplay:10.37,2013-01-05 18:18:00,
2013-01-05 13:23:00,34.7,27.9,30.15,SW,215,9.2,9.2,76,0.00,OVC,,0.00,410.0,WeatherDisplay:10.37,2013-01-05 18:23:00,
2013-01-05 13:28:00,34.9,27.8,30.15,SW,232,11.5,11.5,75,0.00,OVC,,0.00,406.0,WeatherDisplay:10.37,2013-01-05 18:28:00,
2013-01-05 13:33:00,34.9,27.8,30.15,SSE,159,10.4,10.4,75,0.00,OVC,,0.00,408.0,WeatherDisplay:10.37,2013-01-05 18:33:00,
2013-01-05 13:38:00,35.0,27.9,30.15,SSE,165,6.9,6.9,75,0.00,OVC,,0.00,404.0,WeatherDisplay:10.37,2013-01-05 18:38:00,
2013-01-05 13:43:00,35.1,28.0,30.14,South,186,6.9,6.9,75,0.00,OVC,,0.00,403.0,WeatherDisplay:10.37,2013-01-05 18:43:00,
2013-01-05 13:48:00,35.5,27.7,30.14,SSW,211,13.8,13.8,73,0.00,OVC,,0.00,394.0,WeatherDisplay:10.37,2013-01-05 18:48:00,
2013-01-05 13:53:00,35.4,27.6,30.14,SSE,163,13.8,13.8,73,0.00,OVC,,0.00,394.0,WeatherDisplay:10.37,2013-01-05 18:53:00,
2013-01-05 13:58:00,35.7,28.2,30.14,South,175,9.2,9.2,74,0.00,OVC,,0.00,390.0,WeatherDisplay:10.37,2013-01-05 18:58:00,
2013-01-05 14:03:00,36.1,27.9,30.14,SSW,207,7.0,7.0,72,0.00,OVC,,0.00,380.0,WeatherDisplay:10.37,2013-01-05 19:03:00,
2013-01-05 14:08:00,36.2,27.7,30.14,SSW,211,11.5,11.5,71,0.00,OVC,,0.00,399.0,WeatherDisplay:10.37,2013-01-05 19:08:00,
2013-01-05 14:13:00,36.1,27.9,30.13,SSW,200,9.0,9.0,72,0.00,CLR,,0.00,399.0,WeatherDisplay:10.37,2013-01-05 19:13:00,
2013-01-05 14:18:00,36.4,27.9,30.13,South,184,13.8,13.8,71,0.00,CLR,,0.00,383.0,WeatherDisplay:10.37,2013-01-05 19:18:00,
2013-01-05 14:23:00,36.4,27.9,30.14,South,190,15.0,15.0,71,0.00,CLR,,0.00,380.0,WeatherDisplay:10.37,2013-01-05 19:23:00,
2013-01-05 14:28:00,36.5,27.6,30.14,SW,224,8.1,8.1,70,0.00,CLR,,0.00,369.0,WeatherDisplay:10.37,2013-01-05 19:28:00,
2013-01-05 14:33:00,36.2,27.4,30.13,SW,236,16.1,16.1,70,0.00,CLR,,0.00,274.0,WeatherDisplay:10.37,2013-01-05 19:33:00,
2013-01-05 14:38:00,35.3,26.8,30.13,SW,214,12.7,12.7,71,0.00,CLR,,0.00,167.0,WeatherDisplay:10.37,2013-01-05 19:38:00,
2013-01-05 14:43:00,35.0,26.9,30.13,SW,218,12.7,12.7,72,0.00,CLR,,0.00,244.0,WeatherDisplay:10.37,2013-01-05 19:43:00,
2013-01-05 14:48:00,35.0,27.2,30.13,SW,225,12.0,12.0,73,0.00,CLR,,0.00,190.0,WeatherDisplay:10.37,2013-01-05 19:48:00,
2013-01-05 14:53:00,35.0,27.2,30.13,SW,235,8.1,8.1,73,0.00,CLR,,0.00,171.0,WeatherDisplay:10.37,2013-01-05 19:53:00,
2013-01-05 14:58:00,35.3,27.5,30.12,South,184,11.5,11.5,73,0.00,CLR,,0.00,329.0,WeatherDisplay:10.37,2013-01-05 19:58:00,
2013-01-05 15:03:00,35.5,27.4,30.12,SW,215,10.4,10.4,72,0.00,CLR,,0.00,165.0,WeatherDisplay:10.37,2013-01-05 20:03:00,
2013-01-05 15:08:00,35.3,27.5,30.13,SW,216,10.4,10.4,73,0.00,CLR,,0.00,169.0,WeatherDisplay:10.37,2013-01-05 20:08:00,
2013-01-05 15:13:00,35.3,27.2,30.13,South,184,8.1,8.1,72,0.00,CLR,,0.00,188.0,WeatherDisplay:10.37,2013-01-05 20:13:00,
2013-01-05 15:18:00,35.3,27.2,30.12,South,184,13.8,13.8,72,0.00,CLR,,0.00,185.0,WeatherDisplay:10.37,2013-01-05 20:18:00,
2013-01-05 15:23:00,35.2,27.1,30.12,SSW,197,12.7,12.7,72,0.00,CLR,,0.00,181.0,WeatherDisplay:10.37,2013-01-05 20:23:00,
2013-01-05 15:28:00,35.6,27.5,30.11,SSW,203,10.4,10.4,72,0.00,CLR,,0.00,320.0,WeatherDisplay:10.37,2013-01-05 20:28:00,
2013-01-05 15:33:00,35.9,27.4,30.11,SW,215,13.8,13.8,71,0.00,CLR,,0.00,130.0,WeatherDisplay:10.37,2013-01-05 20:33:00,
2013-01-05 15:38:00,35.9,27.4,30.11,SW,215,9.2,9.2,71,0.00,CLR,,0.00,220.0,WeatherDisplay:10.37,2013-01-05 20:38:00,
2013-01-05 15:43:00,36.1,27.3,30.11,WSW,246,10.4,10.4,70,0.00,CLR,,0.00,272.0,WeatherDisplay:10.37,2013-01-05 20:43:00,
2013-01-05 15:48:00,36.1,27.3,30.11,SW,236,11.5,11.5,70,0.00,CLR,,0.00,216.0,WeatherDisplay:10.37,2013-01-05 20:48:00,
2013-01-05 15:53:00,35.6,26.8,30.11,SSE,165,13.8,13.8,70,0.00,BKN,,0.00,47.0,WeatherDisplay:10.37,2013-01-05 20:53:00,
2013-01-05 15:58:00,35.0,26.5,30.11,SSW,213,11.5,11.5,71,0.00,BKN,,0.00,47.0,WeatherDisplay:10.37,2013-01-05 20:58:00,
2013-01-05 16:03:00,34.6,26.2,30.10,South,188,8.1,8.1,71,0.00,BKN,,0.00,79.0,WeatherDisplay:10.37,2013-01-05 21:03:00,
2013-01-05 16:08:00,34.6,26.2,30.10,South,181,12.7,12.7,71,0.00,BKN,,0.00,83.0,WeatherDisplay:10.37,2013-01-05 21:08:00,
2013-01-05 16:13:00,34.3,25.9,30.09,South,185,11.0,11.0,71,0.00,BKN,,0.00,70.0,WeatherDisplay:10.37,2013-01-05 21:13:00,
2013-01-05 16:18:00,34.1,25.7,30.10,South,169,11.5,11.5,71,0.00,BKN,,0.00,35.0,WeatherDisplay:10.37,2013-01-05 21:18:00,
2013-01-05 16:23:00,33.7,25.6,30.10,South,180,12.7,12.7,72,0.00,BKN,,0.00,30.0,WeatherDisplay:10.37,2013-01-05 21:23:00,
2013-01-05 16:28:00,33.4,25.3,30.10,South,184,6.9,6.9,72,0.00,BKN,,0.00,25.0,WeatherDisplay:10.37,2013-01-05 21:28:00,
2013-01-05 16:33:00,33.2,25.5,30.10,South,169,8.1,8.1,73,0.00,BKN,,0.00,25.0,WeatherDisplay:10.37,2013-01-05 21:33:00,
2013-01-05 16:38:00,33.0,25.3,30.09,SSE,163,6.9,6.9,73,0.00,BKN,,0.00,26.0,WeatherDisplay:10.37,2013-01-05 21:38:00,
2013-01-05 16:43:00,32.8,25.1,30.09,South,188,5.8,5.8,73,0.00,BKN,,0.00,23.0,WeatherDisplay:10.37,2013-01-05 21:43:00,
2013-01-05 16:48:00,32.8,25.4,30.09,South,174,9.2,9.2,74,0.00,BKN,,0.00,16.0,WeatherDisplay:10.37,2013-01-05 21:48:00,
2013-01-05 16:53:00,32.7,25.3,30.09,SSE,160,5.8,5.8,74,0.00,CLR,,0.00,14.0,WeatherDisplay:10.37,2013-01-05 21:53:00,
2013-01-05 16:58:00,32.6,25.2,30.09,SSE,154,6.9,6.9,74,0.00,CLR,,0.00,7.0,WeatherDisplay:10.37,2013-01-05 21:58:00,
2013-01-05 17:03:00,32.5,25.1,30.10,SSW,192,4.6,4.6,74,0.00,CLR,,0.00,5.0,WeatherDisplay:10.37,2013-01-05 22:03:00,
2013-01-05 17:08:00,32.5,25.5,30.10,South,172,6.9,6.9,75,0.00,CLR,,0.00,0.0,WeatherDisplay:10.37,2013-01-05 22:08:00,
2013-01-05 17:13:00,32.4,25.4,30.10,SSW,213,8.1,8.1,75,0.00,CLR,,0.00,0.0,WeatherDisplay:10.37,2013-01-05 22:13:00,
2013-01-05 17:18:00,32.4,25.4,30.10,SW,234,8.1,8.1,75,0.00,CLR,,0.00,0.0,WeatherDisplay:10.37,2013-01-05 22:18:00,
2013-01-05 17:23:00,32.3,25.3,30.10,South,175,7.0,7.0,75,0.00,CLR,,0.00,0.0,WeatherDisplay:10.37,2013-01-05 22:23:00,
2013-01-05 17:28:00,32.3,25.3,30.09,SSW,207,9.2,9.2,75,0.00,CLR,,0.00,0.0,WeatherDisplay:10.37,2013-01-05 22:28:00,
2013-01-05 17:33:00,32.2,25.2,30.09,South,188,5.8,5.8,75,0.00,CLR,,0.00,0.0,WeatherDisplay:10.37,2013-01-05 22:33:00,
2013-01-05 17:38:00,32.1,25.1,30.08,South,183,10.4,10.4,75,0.00,CLR,,0.00,0.0,WeatherDisplay:10.37,2013-01-05 22:38:00,
2013-01-05 17:43:00,32.0,25.0,30.08,SSE,165,6.9,6.9,75,0.00,CLR,,0.00,0.0,WeatherDisplay:10.37,2013-01-05 22:43:00,
2013-01-05 17:48:00,31.9,25.2,30.08,South,190,11.0,11.0,76,0.00,CLR,,0.00,0.0,WeatherDisplay:10.37,2013-01-05 22:48:00,
2013-01-05 17:53:00,31.7,25.0,30.08,SSW,200,6.0,6.0,76,0.00,CLR,,0.00,0.0,WeatherDisplay:10.37,2013-01-05 22:53:00,
2013-01-05 17:58:00,31.6,25.2,30.08,SSE,158,8.1,8.1,77,0.00,CLR,,0.00,0.0,WeatherDisplay:10.37,2013-01-05 22:58:00,
2013-01-05 18:03:00,31.6,25.2,30.08,South,184,8.1,8.1,77,0.00,CLR,,0.00,0.0,WeatherDisplay:10.37,2013-01-05 23:03:00,
2013-01-05 18:08:00,31.5,25.1,30.08,South,177,8.1,8.1,77,0.00,CLR,,0.00,0.0,WeatherDisplay:10.37,2013-01-05 23:08:00,
2013-01-05 18:13:00,31.4,25.0,30.08,South,173,9.2,9.2,77,0.00,CLR,,0.00,0.0,WeatherDisplay:10.37,2013-01-05 23:13:00,
2013-01-05 18:18:00,31.4,25.0,30.08,South,179,9.2,9.2,77,0.00,CLR,,0.00,0.0,WeatherDisplay:10.37,2013-01-05 23:18:00,
2013-01-05 18:23:00,31.4,25.0,30.08,South,177,11.5,11.5,77,0.00,CLR,,0.00,0.0,WeatherDisplay:10.37,2013-01-05 23:23:00,
2013-01-05 18:28:00,31.4,25.0,30.08,South,177,9.2,9.2,77,0.00,CLR,,0.00,0.0,WeatherDisplay:10.37,2013-01-05 23:28:00,
2013-01-05 18:33:00,31.4,25.3,30.08,South,175,9.0,9.0,78,0.00,CLR,,0.00,0.0,WeatherDisplay:10.37,2013-01-05 23:33:00,
2013-01-05 18:38:00,31.3,25.2,30.08,South,188,6.0,6.0,78,0.00,CLR,,0.00,0.0,WeatherDisplay:10.37,2013-01-05 23:38:00,
2013-01-05 18:43:00,31.2,25.1,30.08,South,178,9.2,9.2,78,0.00,CLR,,0.00,0.0,WeatherDisplay:10.37,2013-01-05 23:43:00,
2013-01-05 18:48:00,31.2,25.1,30.08,South,180,5.0,6.1,78,0.00,CLR,,0.00,0.0,WeatherDisplay:10.37,2013-01-05 23:48:00,
2013-01-05 18:53:00,31.2,25.1,30.08,SSW,198,6.9,6.9,78,0.00,CLR,,0.00,0.0,WeatherDisplay:10.37,2013-01-05 23:53:00,
2013-01-05 18:58:00,31.2,25.1,30.08,South,182,10.4,10.4,78,0.00,CLR,,0.00,0.0,WeatherDisplay:10.37,2013-01-05 23:58:00,
2013-01-05 19:03:00,31.3,25.2,30.08,South,169,9.2,9.2,78,0.00,CLR,,0.00,0.0,WeatherDisplay:10.37,2013-01-06 00:03:00,
2013-01-05 19:08:00,31.4,25.6,30.08,South,175,6.0,6.0,79,0.00,CLR,,0.00,0.0,WeatherDisplay:10.37,2013-01-06 00:08:00,
2013-01-05 19:13:00,31.4,25.3,30.08,South,187,6.9,6.9,78,0.00,CLR,,0.00,0.0,WeatherDisplay:10.37,2013-01-06 00:13:00,
2013-01-05 19:18:00,31.5,25.4,30.08,South,178,10.0,10.0,78,0.00,CLR,,0.00,0.0,WeatherDisplay:10.37,2013-01-06 00:18:00,
2013-01-05 19:23:00,31.6,25.5,30.08,South,173,6.9,6.9,78,0.00,CLR,,0.00,0.0,WeatherDisplay:10.37,2013-01-06 00:23:00,
2013-01-05 19:28:00,31.7,25.6,30.07,SSE,165,3.5,3.5,78,0.00,CLR,,0.00,0.0,WeatherDisplay:10.37,2013-01-06 00:28:00,
2013-01-05 19:33:00,31.7,25.6,30.08,South,171,9.2,9.2,78,0.00,CLR,,0.00,0.0,WeatherDisplay:10.37,2013-01-06 00:33:00,
2013-01-05 19:38:00,31.7,25.9,30.08,SSW,212,10.4,10.4,79,0.00,CLR,,0.00,0.0,WeatherDisplay:10.37,2013-01-06 00:38:00,
2013-01-05 19:43:00,31.9,25.8,30.08,SSW,208,11.5,11.5,78,0.00,CLR,,0.00,0.0,WeatherDisplay:10.37,2013-01-06 00:43:00,
2013-01-05 19:48:00,32.0,25.9,30.08,SSW,193,9.2,9.2,78,0.00,CLR,,0.00,0.0,WeatherDisplay:10.37,2013-01-06 00:48:00,
2013-01-05 19:53:00,32.1,26.0,30.07,South,186,11.5,11.5,78,0.00,CLR,,0.00,0.0,WeatherDisplay:10.37,2013-01-06 00:53:00,
2013-01-05 19:58:00,32.0,25.9,30.07,SSE,166,9.2,9.2,78,0.00,CLR,,0.00,0.0,WeatherDisplay:10.37,2013-01-06 00:58:00,
2013-01-05 20:03:00,31.9,25.8,30.07,SSE,167,15.0,15.0,78,0.00,CLR,,0.00,0.0,WeatherDisplay:10.37,2013-01-06 01:03:00,
2013-01-05 20:08:00,31.8,25.7,30.07,SSW,194,11.5,11.5,78,0.00,CLR,,0.00,0.0,WeatherDisplay:10.37,2013-01-06 01:08:00,
2013-01-05 20:13:00,31.8,25.7,30.06,SSW,204,11.5,11.5,78,0.00,CLR,,0.00,0.0,WeatherDisplay:10.37,2013-01-06 01:13:00,
2013-01-05 20:18:00,31.7,25.9,30.07,SW,229,8.1,8.1,79,0.00,CLR,,0.00,0.0,WeatherDisplay:10.37,2013-01-06 01:18:00,
2013-01-05 20:23:00,31.7,25.9,30.07,SW,218,11.5,11.5,79,0.00,CLR,,0.00,0.0,WeatherDisplay:10.37,2013-01-06 01:23:00,
2013-01-05 20:28:00,31.7,25.9,30.06,SW,234,11.5,11.5,79,0.00,CLR,,0.00,0.0,WeatherDisplay:10.37,2013-01-06 01:28:00,
2013-01-05 20:33:00,31.8,26.0,30.07,SW,219,10.4,10.4,79,0.00,CLR,,0.00,0.0,WeatherDisplay:10.37,2013-01-06 01:33:00,
2013-01-05 20:38:00,31.8,26.3,30.06,SSW,212,11.5,11.5,80,0.00,CLR,,0.00,0.0,WeatherDisplay:10.37,2013-01-06 01:38:00,
2013-01-05 20:43:00,31.7,26.8,30.06,WSW,239,11.0,11.0,82,0.00,CLR,,0.00,0.0,WeatherDisplay:10.37,2013-01-06 01:43:00,
2013-01-05 20:48:00,31.6,27.0,30.06,SSW,198,10.4,10.4,83,0.00,CLR,,0.00,0.0,WeatherDisplay:10.37,2013-01-06 01:48:00,
2013-01-05 20:53:00,31.6,27.0,30.06,SW,228,11.5,11.5,83,0.00,CLR,,0.00,0.0,WeatherDisplay:10.37,2013-01-06 01:53:00,
2013-01-05 20:58:00,31.7,27.1,30.06,WSW,237,13.8,13.8,83,0.00,CLR,,0.00,0.0,WeatherDisplay:10.37,2013-01-06 01:58:00,
2013-01-05 21:03:00,31.7,27.1,30.06,South,175,10.4,10.4,83,0.00,CLR,,0.00,0.0,WeatherDisplay:10.37,2013-01-06 02:03:00,
2013-01-05 21:08:00,31.7,27.4,30.06,South,190,9.2,9.2,84,0.00,CLR,,0.00,0.0,WeatherDisplay:10.37,2013-01-06 02:08:00,
2013-01-05 21:13:00,31.6,27.6,30.06,SSW,203,9.2,9.2,85,0.00,CLR,,0.00,0.0,WeatherDisplay:10.37,2013-01-06 02:13:00,
2013-01-05 21:18:00,31.5,27.8,30.06,SW,217,10.4,10.4,86,0.00,CLR,,0.00,0.0,WeatherDisplay:10.37,2013-01-06 02:18:00,
2013-01-05 21:23:00,31.3,27.9,30.05,South,186,8.1,8.1,87,0.00,CLR,,0.00,0.0,WeatherDisplay:10.37,2013-01-06 02:23:00,
2013-01-05 21:28:00,31.2,28.1,30.05,SW,232,8.1,8.1,88,0.00,CLR,,0.00,0.0,WeatherDisplay:10.37,2013-01-06 02:28:00,
2013-01-05 21:33:00,31.1,28.0,30.05,SSW,200,9.2,9.2,88,0.00,CLR,,0.00,0.0,WeatherDisplay:10.37,2013-01-06 02:33:00,
2013-01-05 21:38:00,31.1,28.0,30.05,South,185,6.0,6.0,88,0.00,CLR,,0.00,0.0,WeatherDisplay:10.37,2013-01-06 02:38:00,
2013-01-05 21:43:00,31.1,28.2,30.04,SSW,209,7.0,7.0,89,0.00,CLR,,0.00,0.0,WeatherDisplay:10.37,2013-01-06 02:43:00,
2013-01-05 21:48:00,31.1,28.2,30.04,WSW,244,8.0,8.0,89,0.00,CLR,,0.00,0.0,WeatherDisplay:10.37,2013-01-06 02:48:00,
2013-01-05 21:53:00,31.1,28.5,30.04,SW,224,10.4,10.4,90,0.00,CLR,,0.00,0.0,WeatherDisplay:10.37,2013-01-06 02:53:00,
2013-01-05 21:58:00,31.1,28.5,30.04,SSW,211,8.0,8.0,90,0.00,CLR,,0.00,0.0,WeatherDisplay:10.37,2013-01-06 02:58:00,
2013-01-05 22:03:00,31.1,28.8,30.04,SW,228,8.1,8.1,91,0.00,CLR,,0.00,0.0,WeatherDisplay:10.37,2013-01-06 03:03:00,
2013-01-05 22:08:00,31.1,28.8,30.04,SW,222,10.0,10.0,91,0.00,CLR,,0.00,0.0,WeatherDisplay:10.37,2013-01-06 03:08:00,
2013-01-05 22:13:00,31.1,28.8,30.04,SSW,198,9.2,9.2,91,0.00,CLR,,0.00,0.0,WeatherDisplay:10.37,2013-01-06 03:13:00,
2013-01-05 22:18:00,31.1,29.0,30.04,SW,224,9.2,9.2,92,0.00,CLR,,0.00,0.0,WeatherDisplay:10.37,2013-01-06 03:18:00,
2013-01-05 22:23:00,31.2,29.1,30.04,SSW,212,8.1,8.1,92,0.00,CLR,,0.00,0.0,WeatherDisplay:10.37,2013-01-06 03:23:00,
2013-01-05 22:29:00,31.2,29.1,30.03,SSW,198,9.2,9.2,92,0.00,CLR,,0.00,0.0,WeatherDisplay:10.37,2013-01-06 03:29:00,
2013-01-05 22:34:00,31.3,29.5,30.03,SSW,198,7.0,7.0,93,0.00,CLR,,0.00,0.0,WeatherDisplay:10.37,2013-01-06 03:34:00,
2013-01-05 22:39:00,31.4,29.6,30.03,SW,236,9.0,9.0,93,0.00,CLR,,0.00,0.0,WeatherDisplay:10.37,2013-01-06 03:39:00,
2013-01-05 22:44:00,31.4,29.6,30.03,SW,217,8.0,8.0,93,0.00,CLR,,0.00,0.0,WeatherDisplay:10.37,2013-01-06 03:44:00,
2013-01-05 22:49:00,31.5,29.7,30.02,SSW,213,9.2,9.2,93,0.00,CLR,,0.00,0.0,WeatherDisplay:10.37,2013-01-06 03:49:00,
2013-01-05 22:54:00,31.5,29.7,30.02,SSW,202,5.0,5.0,93,0.00,CLR,,0.00,0.0,WeatherDisplay:10.37,2013-01-06 03:54:00,
2013-01-05 22:59:00,31.5,29.7,30.02,South,187,6.0,6.0,93,0.00,CLR,,0.00,0.0,WeatherDisplay:10.37,2013-01-06 03:59:00,
2013-01-05 23:04:00,31.5,29.7,30.03,SW,217,9.2,9.2,93,0.00,CLR,,0.00,0.0,WeatherDisplay:10.37,2013-01-06 04:04:00,
2013-01-05 23:09:00,31.5,29.7,30.03,SSW,206,10.4,10.4,93,0.00,CLR,,0.00,0.0,WeatherDisplay:10.37,2013-01-06 04:09:00,
2013-01-05 23:14:00,31.6,29.8,30.02,SSW,209,8.1,8.1,93,0.00,CLR,,0.00,0.0,WeatherDisplay:10.37,2013-01-06 04:14:00,
2013-01-05 23:19:00,31.7,29.9,30.02,SSW,208,9.2,9.2,93,0.00,CLR,,0.00,0.0,WeatherDisplay:10.37,2013-01-06 04:19:00,
2013-01-05 23:24:00,31.8,30.0,30.02,South,189,9.2,9.2,93,0.00,CLR,,0.00,0.0,WeatherDisplay:10.37,2013-01-06 04:24:00,
2013-01-05 23:29:00,32.0,30.2,30.02,WSW,242,11.5,11.5,93,0.00,CLR,,0.00,0.0,WeatherDisplay:10.37,2013-01-06 04:29:00,
2013-01-05 23:34:00,32.1,30.3,30.02,SW,214,11.0,11.0,93,0.00,CLR,,0.00,0.0,WeatherDisplay:10.37,2013-01-06 04:34:00,
2013-01-05 23:39:00,32.2,30.4,30.02,SSW,194,9.2,9.2,93,0.00,CLR,,0.00,0.0,WeatherDisplay:10.37,2013-01-06 04:39:00,
2013-01-05 23:44:00,32.3,30.5,30.01,SW,227,7.0,7.0,93,0.00,CLR,,0.00,0.0,WeatherDisplay:10.37,2013-01-06 04:44:00,
2013-01-05 23:49:00,32.3,30.5,30.01,SW,215,11.5,11.5,93,0.00,CLR,,0.00,0.0,WeatherDisplay:10.37,2013-01-06 04:49:00,
2013-01-05 23:54:00,32.4,30.6,30.01,SW,225,9.2,9.2,93,0.00,CLR,,0.00,0.0,WeatherDisplay:10.37,2013-01-06 04:54:00,
2013-01-05 23:59:00,32.4,30.6,30.01,SW,220,11.5,11.5,93,0.00,CLR,,0.00,0.0,WeatherDisplay:10.37,2013-01-06 04:59:00,